Regional Weather Roundup
Issued by NWS

Home | Current Version | Previous Version | Graphics & Text | Print | Product List | Glossary On
Versions: 1 2 3 4 5 6 7 8 9 10 11 12 13 14 15 16 17 18 19 20 21 22 23 24 25 26 27 28 29 30 31 32 33 34 35 36 37 38 39 40 41 42 43 44 45 46 47 48 49 50
566
ASUS43 KDTX 290101
RWRMI
MICHIGAN HOURLY REGIONAL WEATHER ROUNDUP
NATIONAL WEATHER SERVICE DETROIT/PONTIAC MI
900 PM EDT FRI APR 28 2017

NOTE: "FAIR" INDICATES FEW OR NO CLOUDS BELOW 12,000 FEET WITH NO
SIGNIFICANT WEATHER AND/OR OBSTRUCTION TO VISIBILITY.

MIZ047>049-052>055-059>063-066>070-074>076-081>083-290200-
SOUTHEAST LOWER MICHIGAN

CITY           SKY/WX    TMP DP  RH WIND       PRES   REMARKS
ADRIAN         CLOUDY    54  50  86 S8        29.94F
ALMA           CLOUDY    57  47  70 CALM      29.91F
ANN ARBOR      CLOUDY    56  50  80 S8        29.94R
BAD AXE        CLOUDY    58  43  58 W3        29.94R
CARO           CLOUDY    60  43  54 CALM      29.92R
DETROIT CITY   CLOUDY    57  49  74 S12       29.94F
DETROIT        CLOUDY    57  51  80 S9        29.95S
FLINT          CLOUDY    59  41  51 CALM      29.92R
GROSSE ILE     CLOUDY    56  51  83 S10       29.93F
HILLSDALE      CLOUDY    54  46  76 S7        29.93R
HOWELL         CLOUDY    58  43  56 S6        29.93R

CITY           SKY/WX    TMP DP  RH WIND       PRES   REMARKS
JACKSON        CLOUDY    56  48  74 S10       29.93R
LAMBERTVILLE   CLOUDY    55  50  83 S6        29.93F
LANSING        CLOUDY    59  41  51 S7        29.92R
LAPEER         CLOUDY    59  41  52 SW6       29.93R
MASON          CLOUDY    58  46  64 S6        29.93R
MONROE         CLOUDY    57  50  79 S12       29.92F
MT. CLEMENS    CLOUDY    56  51  80 S14       29.91F
PONTIAC        CLOUDY    59  43  55 S7        29.92R
PORT HOPE        N/A     54  48  80 E5        29.92R
PORT HURON     CLOUDY    57  43  58 S3        29.92F
TRI CITIES     CLOUDY    60  45  57 CALM      29.92R
MIDLAND        CLOUDY    60  42  52 NW3       29.91F
TROY           CLOUDY    58  46  64 S8        29.95R
SAGINAW HB     CLOUDY    61  39  44 SW5       29.91S
$$
MIZ043>046-050>051-056>058-064>065-071>073-077>080-290200-
SOUTHWEST LOWER MICHIGAN

CITY           SKY/WX    TMP DP  RH WIND       PRES   REMARKS
BATTLE CREEK   CLOUDY    58  47  66 S7        29.92R
BENTON HARBOR  CLOUDY    54  46  74 CALM      29.90R
BIG RAPIDS     CLOUDY    52  39  60 NW5       29.93R
COLDWATER      CLOUDY    56  47  73 S5        29.92S
FREMONT        DRIZZLE   51  41  68 N9        29.92S
HOLLAND        CLOUDY    55  44  66 VRB3      29.92R
GRAND RAPIDS   CLOUDY    59  43  55 CALM      29.90S
IONIA          CLOUDY    56  44  63 CALM      29.90S
KALAMAZOO      CLOUDY    59  46  62 S10       29.91S
LUDINGTON      LGT RAIN  44  39  82 CALM      29.96R
MARSHALL       CLOUDY    57  48  70 S5        29.92R
MOUNT PLEASANT CLOUDY    56  41  56 NW3       29.92R
MUSKEGON       CLOUDY    54  43  66 N7        29.92S
SOUTH HAVEN    CLOUDY    54  47  78 CALM      29.90R
$$
MIZ016>042-290200-
NORTHERN LOWER MICHIGAN

CITY           SKY/WX    TMP DP  RH WIND       PRES   REMARKS
ALPENA         MOCLDY    42  34  73 NE5       29.97R
BEAVER ISLAND  CLOUDY    38  32  78 SW5       29.97R WCI  35
BELLAIRE       CLOUDY    42  31  62 CALM      29.97S
CADILLAC       LGT RAIN  45  37  73 NW3       29.95R
CHARLEVOIX     CLOUDY    40  31  70 W3        30.00R
FRANKFORT      CLOUDY    44  34  68 CALM      29.96R
GAYLORD        MOCLDY    43  27  53 NW5       29.95R
GRAYLING       LGT RAIN  43  35  75 W5        29.96R
HARBOR SPRINGS MOCLDY    39  30  70 CALM      29.98R
HOUGHTON LAKE  CLOUDY    49  34  56 N7        29.95R
MANISTEE       LGT RAIN  44  37  76 CALM      29.96R
OSCODA         CLOUDY    42  34  73 NE12      29.95R
PELLSTON       CLOUDY    40  27  59 W6        29.97R
ROGERS CITY    MOCLDY    41  32  70 NW7       29.98R
TRAVERSE CITY  CLOUDY    46  32  58 N6        29.96R
$$
MIZ007>008-015-290200-
EASTERN UPPER MICHIGAN

CITY           SKY/WX    TMP DP  RH WIND       PRES   REMARKS
KINROSS        CLOUDY    36  29  75 NW8       29.97R WCI  30
MACKINAC ISLAN CLOUDY    38  32  80 W7        29.97R WCI  32
NEWBERRY       CLOUDY    37  28  70 W3        29.96S
S. S. MARIE    CLOUDY    37  27  67 NW7       29.96S WCI  32
MUNISING         N/A     40  27  59 NW5       29.97R
$$
MIZ004>006-011>014-085-290200-
CENTRAL UPPER MICHIGAN

CITY           SKY/WX    TMP DP  RH WIND       PRES   REMARKS
MANISTIQUE     CLOUDY    38  30  74 NE5       29.98R WCI  34
ESCANABA       PTCLDY    43  30  60 W6        29.98R
MENOMINEE      CLOUDY    45  31  58 N8        29.98R
SAWYER-GWINN   CLOUDY    37  27  65 W8        29.97R WCI  31
$$
MIZ001>003-009>011-084-290200-
WESTERN UPPER MICHIGAN

CITY           SKY/WX    TMP DP  RH WIND       PRES   REMARKS
IRON MOUNTAIN  CLOUDY    40  25  55 NW10      29.96R WCI  33
HOUGHTON       MOCLDY    34  24  67 NW14G21   29.98R WCI  25
COPPER HARBOR    N/A     36  27  69 N16       29.98R WCI  26
IRONWOOD       CLOUDY    35  26  69 VRB7      30.02R WCI  29
$$

ABBREVIATIONS USED IN REMARKS
   TC - TEMPERATURE IN CELSIUS
  WCI - WIND CHILL INDEX
   HX - HEAT INDEX
  VSB - VISIBILITY





USA.gov is the U.S. government's official web portal to all federal, state and local government web resources and services.